Simultaneous Nadir Overpasses (SNOs) Predictions

Prediction of SNOs between LANDSAT-8 and METOP-B Satellite Orbit:

Table of predicted SNOs for the next 14.0 days since TLE Epoch: 11/16/2019
Index Date (LANDSAT-8) Time (LANDSAT-8) Lat,Lon (LANDSAT-8) SZA (LANDSAT-8 ) Date (METOP-B) Time (METOP-B) Lat,Lon (METOP-B) SZA (METOP-B ) Distance(km) Time Diff (sec)
1 11/16/2019 09:47:45 -81.09,-107.47 77.91 11/16/2019 09:47:13 -81.09,-107.59 77.94 2.12 32
2 11/16/2019 10:37:10 81.12, 60.63 102.17 11/16/2019 10:37:51 81.12, 60.77 102.20 2.39 41
3 11/19/2019 05:21:59 -81.10, -40.84 77.22 11/19/2019 05:21:36 -81.10, -40.89 77.24 1.14 23
4 11/19/2019 06:11:25 81.11, 126.86 102.80 11/19/2019 06:12:16 81.11, 126.71 102.81 2.66 51
5 11/22/2019 00:56:13 -81.09, 25.39 76.64 11/22/2019 00:55:59 -81.09, 25.41 76.64 0.55 14
6 11/22/2019 01:45:38 81.12,-166.57 103.43 11/22/2019 01:46:38 81.12,-166.61 103.46 0.75 60
7 11/24/2019 20:30:27 -81.10, 91.95 76.06 11/24/2019 20:30:22 -81.10, 92.07 76.04 2.21 5
8 11/24/2019 21:19:52 81.12,-100.04 104.01 11/24/2019 21:21:01 81.12, -99.95 104.05 1.44 69
9 11/27/2019 15:15:15 81.08, -9.56 104.41 11/27/2019 15:14:07 81.07, -9.71 104.36 2.60 68




NCC Satellite Simultaneous Nadir Overpasses (SNOs) Prediction Service
